DMSP 5D-2 F13 DEB, 40611

Orbit data source: Space-Track

DMSP 5D-2 F13 DEB, 40611 is space debris in SSO originally from a launch on Fri, 24 Mar 1995 UTC launched from the Air Force Western Test Range (AFWTR). Debris objects in space refer to the collection of defunct objects orbiting the Earth. Examples of debris include non-operational satellites, rocket bodies, and fragments generated from explosions, collisions, or faulty payload assembly.

Loading next visibility...
Identifier
40611, 1995-015FJ
Orbit
SSO
Country
Flag of USUS
Related business
Manufacturer
Unknown
Mission
Spacecraft
Bus & Motor
Unknown
Mass
Unknown
Launch date (UTC)
1995-03-24 (31 years ago)
Launch vehicle
Unknown
Launch site
Air Force Western Test Range (AFWTR)
Object type
Payload
Rocket body
Debris
Shape & HBR
Unknown shape, 0.1 m
Radar Cross Section
Medium (>0.1 m² and <1 m²)

Expand to show TLE details & history
Last TLE update: 5 days ago

TLE from 5 days ago
0 DMSP 5D-2 F13 DEB
1 40611U 95015FJ  26202.91680998  .00003999  00000-0  13285-2 0  9995
2 40611  98.7684 241.4539 0027431  32.8868 327.4018 14.38087974583468
Epoch: 2026-07-21T22:00Z
TLE epoch observation values (Epoch: 2026-07-21T22:00:12.382Z)
Latitude
-0.00004°
Longitude
-28.27732°
Altitude
751.265 km
Speed
7.488 km/s
True Right ascension
16h 05m 48s
True Declination
0° 00' 00"
Sunlit
Object was in full shadow at epoch
Visualization orbit readout
Latitude
Unknown
Longitude
Unknown
Altitude
Unknown
Speed
Unknown
Apparent Right ascension
Unknown
Apparent Declination
Unknown
Sunlit
N/A
Visualization observer readout
Local Sidereal Time
19:10:39
Azimuth
Unknown
Elevation
Unknown
Doppler factor
Unknown
Orbital elements
Apogee altitude
781.546 km
Perigee altitude
742.374 km
Semi-major axis
7,140.097 km
Eccentricity
0.00274
Inclination
98.7684°
RAAN
241.4539°
Arg. of periapsis
32.8868°
True anomaly
327.23196°
Mean anomaly
327.4018°
Eccentric anomaly
327.31693°
Mean motion
3.59739 °/min
Orbital period
100.07 mins
BSTAR
0.0013285
Loading maneuver chart data...
Computing Atmospheric mass density...

Documentation

Showing up to 5 results
|